sat.trackr.live / text

‹ back to catalog

STARLINK-36486

NORAD 67335 · 2026-003B

PAYLOAD ACTIVE UNKNOWN

§ Identity

Operator
Country
US
Launch date
2026-01-09
Launch site
AFETR
Launch vehicle
Mass (kg)
RCS (m²)

Purposes: comms

External: N2YO · Heavens-Above · Gunter

§ Orbital elements

Epoch: 2026-09-19T05:07:32.855808Z

Period
94.27 min
Inclination
42.9987°
Eccentricity
0.0001413
Mean motion
15.27592519 rev/d
Perigee alt
482.0 km
Apogee alt
484.0 km
Semi-major
6,861.1 km
B*
5.3961e-4
RAAN
213.9077°
Arg perigee
268.3970°
Mean anomaly
91.6719°
Rev number
3,842

§ Raw data

STARLINK-364861 67335U 26003B   26262.21357472  .00014622  00000+0  53961-3 0  99952 67335  42.9987 213.9077 0001413 268.3970  91.6719 15.27592519 38424

JSON: /api/v1/satellites/67335 · /tle

For live sub-satellite position, see the globe view (requires WebGL).

§ Visibility from observer

Set your observer location to see the next 7 days of passes ≥ 10°. The values pass through the URL so the page stays shareable.

No JS? Fill the form by hand. The geolocation button needs JavaScript.